Location: ????????
(55.4717°N, 39.1821°E)
Time: 20:12:46
(UTC+00:00)

Cosmos 1536 - Pass Details

Date: 14 April 2024
Orbit: 514 x 543 km, 82.6° (Epoch: 18 May)

Event Time Altitude Azimuth Distance (km) Brightness Sun altitude
Rises 00:25:21 0° 343° (NNW) 2,685 6.7 -14.8°
Reaches altitude 10° 00:27:35 10° 336° (NNW) 1,784 5.7 -14.6°
Maximum altitude 00:31:16 41° 266° (W) 775 3.2 -14.2°
Enters shadow 00:33:09 24° 211° (SSW) 1,128 3.8 -14.0°
